Zurück zum Katalog

ONEWEB-0690

AktivKommunikationPO
NORAD 61598·PAYLOAD·🇬🇧 United Kingdom

Gestartet Oct 20, 2024 von Vandenberg Space Force Base

Loading…

Nächste Überflüge (nächste 24 Stunden)

TLE

AktuellSource: CelesTrak SupGP

Epoche: Sep 14, 2026, 11:47 UTC

1 61598C 24188E   26257.49112683 -.00003199  00000+0 -90380-2 0  2570
2 61598  87.8967   3.3132 0002206  90.0472  18.3794 13.11414276    13

Verfolge ONEWEB-0690 in Echtzeit mit AllMySat

Download on the App Store